TimeAST,TemperatureF,Dew PointF,Humidity,Sea Level PressureIn,VisibilityMPH,Wind Direction,Wind SpeedMPH,Gust SpeedMPH,PrecipitationIn,Events,Conditions,WindDirDegrees,DateUTC
12:00 AM,78.8,73.4,83,29.92,6.2,SSE,6.9,-,N/A,,Partly Cloudy,150,2011-10-01 04:00:00
1:00 AM,80.6,75.2,84,29.89,6.2,SSE,3.5,-,N/A,,Partly Cloudy,150,2011-10-01 05:00:00
2:00 AM,82,76,79,29.91,16,SSE,6.9,,,,Partly Cloudy,150,2011-10-01 06:00:00
2:00 AM,82.4,77.0,84,29.89,6.2,SE,6.9,-,N/A,,Partly Cloudy,130,2011-10-01 06:00:00
3:00 AM,82.4,78.8,89,29.89,6.2,SE,3.5,-,N/A,,Scattered Clouds,140,2011-10-01 07:00:00
4:00 AM,82.4,77.0,84,29.89,6.2,SE,9.2,-,N/A,,Scattered Clouds,140,2011-10-01 08:00:00
5:00 AM,83,77,78,29.91,16,SE,9.2,,,,Partly Cloudy,140,2011-10-01 09:00:00
5:00 AM,82.4,77.0,84,29.89,6.2,SE,9.2,-,N/A,,Scattered Clouds,140,2011-10-01 09:00:00
6:00 AM,82.4,77.0,84,29.92,6.2,SE,11.5,-,N/A,,Scattered Clouds,140,2011-10-01 10:00:00
7:00 AM,82.4,77.0,84,29.95,6.2,SE,5.8,-,N/A,,Scattered Clouds,130,2011-10-01 11:00:00
8:00 AM,84,77,75,29.96,16,SE,12.7,,,,Partly Cloudy,140,2011-10-01 12:00:00
8:00 AM,84.2,77.0,79,29.98,6.2,SE,12.7,-,N/A,,Scattered Clouds,140,2011-10-01 12:00:00
9:00 AM,86.0,77.0,74,29.98,6.2,SE,12.7,-,N/A,,Scattered Clouds,140,2011-10-01 13:00:00
10:00 AM,86.0,78.8,79,29.98,6.2,SE,12.7,-,N/A,,Partly Cloudy,140,2011-10-01 14:00:00
11:00 AM,87,78,68,29.98,25,SSE,10.4,,,,Scattered Clouds,160,2011-10-01 15:00:00
11:00 AM,86.0,77.0,74,29.98,6.2,SSE,10.4,-,N/A,,Partly Cloudy,150,2011-10-01 15:00:00
12:00 PM,87.8,78.8,75,29.95,6.2,SE,10.4,-,N/A,,Partly Cloudy,140,2011-10-01 16:00:00
1:00 PM,86.0,77.0,74,29.95,6.2,SE,11.5,-,N/A,,Partly Cloudy,140,2011-10-01 17:00:00
2:00 PM,87,78,68,29.93,25,SSE,11.5,,,,Scattered Clouds,150,2011-10-01 18:00:00
2:00 PM,86.0,78.8,79,29.92,6.2,SE,11.5,-,N/A,,Partly Cloudy,140,2011-10-01 18:00:00
3:00 PM,86.0,77.0,74,29.92,6.2,SE,12.7,-,N/A,,Partly Cloudy,140,2011-10-01 19:00:00
4:00 PM,86.0,77.0,74,29.92,6.2,SE,11.5,-,N/A,,Partly Cloudy,140,2011-10-01 20:00:00
5:00 PM,86,76,66,29.92,25,SE,8.1,,,,Scattered Clouds,140,2011-10-01 21:00:00
5:00 PM,86.0,77.0,74,29.92,6.2,SE,8.1,-,N/A,,Partly Cloudy,140,2011-10-01 21:00:00
6:00 PM,84.2,77.0,79,29.92,6.2,ESE,8.1,-,N/A,,Partly Cloudy,110,2011-10-01 22:00:00
7:00 PM,84.2,77.0,79,29.92,6.2,ESE,6.9,-,N/A,,Partly Cloudy,120,2011-10-01 23:00:00
8:00 PM,83,77,77,29.96,25,SE,5.8,,,,Scattered Clouds,140,2011-10-02 00:00:00
8:00 PM,82.4,77.0,84,29.95,6.2,ESE,6.9,-,N/A,,Partly Cloudy,110,2011-10-02 00:00:00
9:00 PM,84.2,77.0,79,29.95,6.2,ESE,9.2,-,N/A,,Partly Cloudy,110,2011-10-02 01:00:00
10:00 PM,82.4,77.0,84,29.98,6.2,ESE,9.2,-,N/A,,Partly Cloudy,120,2011-10-02 02:00:00
11:00 PM,83,76,73,29.98,25,ESE,11.5,,,Rain,Light Rain Showers,110,2011-10-02 03:00:00
11:00 PM,82.4,75.2,79,29.98,6.2,ESE,11.5,-,N/A,,Scattered Clouds,110,2011-10-02 03:00:00